Voltar ao catálogo

SCOUT X-4 DEB

AtivoPO
NORAD 977·DEBRIS·🇺🇸 United States

Lançado Oct 10, 1964 de Vandenberg Space Force Base

Loading…

Próximas Passagens (próximas 24 horas)

TLE

AtualizadoSource: Space-Track

Época: Sep 14, 2026, 09:50 UTC

1 00977U 64064D   26257.40994086  .00000223  00000-0  19942-3 0  9990
2 00977  80.0428  57.6011 0126436 287.2558  71.4788 13.79167755101734

Acompanhe SCOUT X-4 DEB em tempo real com AllMySat

Download on the App Store